Location: Powder Track
(41.8531°N, 72.3584°W)
Time: 09:21:17
(UTC+00:00)

Transit 4A - Pass Details

Date: 13 August 2021
Orbit: 871 x 974 km, 66.8° (Epoch: 20 September)

Event Time Altitude Azimuth Distance (km) Brightness Sun altitude
Rises 00:13:29 0° 156° (SSE) 3,486 10.5 -4.3°
Reaches altitude 10° 00:17:15 10° 133° (SE) 2,535 9.6 -4.9°
Maximum altitude 00:20:07 14° 103° (ESE) 2,254 9.3 -5.4°
Drops below altitude 10° 00:22:58 10° 73° (ENE) 2,526 9.8 -5.9°
Sets 00:26:42 0° 49° (NE) 3,464 10.7 -6.5°
